Location: Pasadena, ca
(34.1243°N, 118.1037°W)
Time: 05:28:49
(UTC-08:00)

OTV 5 (USA 277) - Pass Details

Date: 14 October 2017
Orbit: 404 x 417 km, 43.0° (Epoch: 07 September)

Event Time Altitude Azimuth Distance (km) Brightness Sun altitude
Rises 19:39:34 0° 290° (WNW) 2,353 ? -17.4°
Reaches altitude 10° 19:42:09 10° 311° (NW) 1,490 ? -18.0°
Maximum altitude 19:44:33 18° 356° (N) 1,102 ? -18.5°
Enters shadow 19:45:15 17° 12° (NNE) 1,140 ? -18.6°
